Time,TemperatureF,DewpointF,PressureIn,WindDirection,WindDirectionDegrees,WindSpeedMPH,WindSpeedGustMPH,Humidity,HourlyPrecipIn,Conditions,Clouds,dailyrainin,SolarRadiationWatts/m^2,SoftwareType,DateUTC
2013-07-06 00:02:00,66.5,63.1,29.83,SW,228,2.0,4.0,89,0.00,,,0.00,0,HR-IXP-WINDi_r2_v1.2,2013-07-06 07:02:00,
2013-07-06 00:08:00,66.5,63.1,29.83,WSW,240,0.0,4.0,89,0.00,,,0.00,0,HR-IXP-WINDi_r2_v1.2,2013-07-06 07:08:00,
2013-07-06 00:13:00,66.6,63.2,29.83,WSW,240,1.0,3.0,89,0.00,,,0.00,0,HR-IXP-WINDi_r2_v1.2,2013-07-06 07:13:00,
2013-07-06 00:18:00,66.6,63.2,29.83,WSW,240,0.0,3.0,89,0.00,,,0.00,0,HR-IXP-WINDi_r2_v1.2,2013-07-06 07:18:00,
2013-07-06 00:23:00,66.5,63.1,29.83,WSW,240,1.0,3.0,89,0.00,,,0.00,0,HR-IXP-WINDi_r2_v1.2,2013-07-06 07:23:00,
2013-07-06 00:28:00,66.6,63.2,29.83,SSW,205,0.0,3.0,89,0.00,,,0.00,0,HR-IXP-WINDi_r2_v1.2,2013-07-06 07:28:00,
2013-07-06 00:34:00,66.6,63.2,29.83,SSW,205,0.0,3.0,89,0.00,,,0.00,0,HR-IXP-WINDi_r2_v1.2,2013-07-06 07:34:00,
2013-07-06 00:39:00,66.7,63.3,29.83,SSW,205,2.0,3.0,89,0.00,,,0.00,0,HR-IXP-WINDi_r2_v1.2,2013-07-06 07:39:00,
2013-07-06 00:44:00,66.6,63.2,29.83,South,191,0.0,3.0,89,0.00,,,0.00,0,HR-IXP-WINDi_r2_v1.2,2013-07-06 07:44:00,
2013-07-06 00:49:00,66.5,63.1,29.83,South,191,1.0,2.0,89,0.00,,,0.00,0,HR-IXP-WINDi_r2_v1.2,2013-07-06 07:49:00,
2013-07-06 00:54:00,66.6,63.2,29.82,SSW,192,0.0,2.0,89,0.00,,,0.00,0,HR-IXP-WINDi_r2_v1.2,2013-07-06 07:54:00,
2013-07-06 01:00:00,66.6,63.2,29.83,SSW,194,1.0,3.0,89,0.00,,,0.00,0,HR-IXP-WINDi_r2_v1.2,2013-07-06 08:00:00,
2013-07-06 01:05:00,66.5,63.1,29.82,SSW,197,0.0,3.0,89,0.00,,,0.00,0,HR-IXP-WINDi_r2_v1.2,2013-07-06 08:05:00,
2013-07-06 01:10:00,66.4,63.0,29.82,SSW,197,0.0,3.0,89,0.00,,,0.00,0,HR-IXP-WINDi_r2_v1.2,2013-07-06 08:10:00,
2013-07-06 01:15:00,66.5,63.1,29.82,SSW,193,1.0,1.0,89,0.00,,,0.00,0,HR-IXP-WINDi_r2_v1.2,2013-07-06 08:15:00,
2013-07-06 01:20:00,66.5,63.1,29.82,SSW,193,1.0,1.0,89,0.00,,,0.00,0,HR-IXP-WINDi_r2_v1.2,2013-07-06 08:20:00,
2013-07-06 01:26:00,66.6,63.2,29.82,SSW,193,0.0,2.0,89,0.00,,,0.00,0,HR-IXP-WINDi_r2_v1.2,2013-07-06 08:26:00,
2013-07-06 01:31:00,66.5,63.1,29.82,SSW,193,0.0,2.0,89,0.00,,,0.00,0,HR-IXP-WINDi_r2_v1.2,2013-07-06 08:31:00,
2013-07-06 01:36:00,66.6,63.2,29.82,SSW,193,0.0,2.0,89,0.00,,,0.00,0,HR-IXP-WINDi_r2_v1.2,2013-07-06 08:36:00,
2013-07-06 01:41:00,66.7,63.3,29.82,SSW,193,0.0,1.0,89,0.00,,,0.00,0,HR-IXP-WINDi_r2_v1.2,2013-07-06 08:41:00,
2013-07-06 01:46:00,66.7,63.3,29.82,SSW,193,0.0,1.0,89,0.00,,,0.00,0,HR-IXP-WINDi_r2_v1.2,2013-07-06 08:46:00,
2013-07-06 01:51:00,66.7,63.3,29.82,SSW,193,2.0,2.0,89,0.00,,,0.00,0,HR-IXP-WINDi_r2_v1.2,2013-07-06 08:51:00,
2013-07-06 01:56:00,66.7,63.3,29.82,SSW,195,0.0,3.0,89,0.00,,,0.00,0,HR-IXP-WINDi_r2_v1.2,2013-07-06 08:56:00,
2013-07-06 02:02:00,66.7,63.3,29.81,South,190,1.0,3.0,89,0.00,,,0.00,0,HR-IXP-WINDi_r2_v1.2,2013-07-06 09:02:00,
2013-07-06 02:07:00,66.7,63.3,29.81,South,188,0.0,3.0,89,0.00,,,0.00,0,HR-IXP-WINDi_r2_v1.2,2013-07-06 09:07:00,
2013-07-06 02:12:00,66.7,63.3,29.81,South,188,0.0,3.0,89,0.00,,,0.00,0,HR-IXP-WINDi_r2_v1.2,2013-07-06 09:12:00,
2013-07-06 02:18:00,66.7,63.3,29.81,South,186,0.0,2.0,89,0.00,,,0.00,0,HR-IXP-WINDi_r2_v1.2,2013-07-06 09:18:00,
2013-07-06 02:23:00,66.7,63.3,29.81,South,177,0.0,3.0,89,0.00,,,0.00,0,HR-IXP-WINDi_r2_v1.2,2013-07-06 09:23:00,
2013-07-06 02:28:00,66.6,63.2,29.81,South,177,0.0,3.0,89,0.00,,,0.00,0,HR-IXP-WINDi_r2_v1.2,2013-07-06 09:28:00,
2013-07-06 02:33:00,66.7,63.3,29.81,South,177,0.0,1.0,89,0.00,,,0.00,0,HR-IXP-WINDi_r2_v1.2,2013-07-06 09:33:00,
2013-07-06 02:38:00,66.7,63.3,29.81,South,177,1.0,2.0,89,0.00,,,0.00,0,HR-IXP-WINDi_r2_v1.2,2013-07-06 09:38:00,
2013-07-06 02:44:00,66.7,63.3,29.80,South,177,0.0,2.0,89,0.00,,,0.00,0,HR-IXP-WINDi_r2_v1.2,2013-07-06 09:44:00,
2013-07-06 02:49:00,66.8,63.4,29.80,South,177,1.0,2.0,89,0.00,,,0.00,0,HR-IXP-WINDi_r2_v1.2,2013-07-06 09:49:00,
2013-07-06 02:54:00,66.9,63.5,29.80,SE,132,2.0,3.0,89,0.00,,,0.00,0,HR-IXP-WINDi_r2_v1.2,2013-07-06 09:54:00,
2013-07-06 02:59:00,66.9,63.5,29.80,East,95,2.0,3.0,89,0.00,,,0.00,0,HR-IXP-WINDi_r2_v1.2,2013-07-06 09:59:00,
2013-07-06 03:05:00,66.9,63.5,29.80,East,79,2.0,3.0,89,0.00,,,0.00,0,HR-IXP-WINDi_r2_v1.2,2013-07-06 10:05:00,
2013-07-06 03:10:00,66.8,63.4,29.80,NE,49,2.0,3.0,89,0.00,,,0.00,0,HR-IXP-WINDi_r2_v1.2,2013-07-06 10:10:00,
2013-07-06 03:15:00,66.7,63.3,29.80,NE,49,0.0,3.0,89,0.00,,,0.00,0,HR-IXP-WINDi_r2_v1.2,2013-07-06 10:15:00,
2013-07-06 03:20:00,66.7,63.3,29.80,NE,49,0.0,1.0,89,0.00,,,0.00,0,HR-IXP-WINDi_r2_v1.2,2013-07-06 10:20:00,
2013-07-06 03:25:00,66.7,63.3,29.80,ESE,121,0.0,3.0,89,0.00,,,0.00,0,HR-IXP-WINDi_r2_v1.2,2013-07-06 10:25:00,
2013-07-06 03:30:00,66.6,63.2,29.80,ESE,121,0.0,3.0,89,0.00,,,0.00,0,HR-IXP-WINDi_r2_v1.2,2013-07-06 10:30:00,
2013-07-06 03:36:00,66.6,63.2,29.80,SE,144,0.0,2.0,89,0.00,,,0.00,0,HR-IXP-WINDi_r2_v1.2,2013-07-06 10:36:00,
2013-07-06 03:41:00,66.5,63.1,29.80,SSE,147,0.0,2.0,89,0.00,,,0.00,0,HR-IXP-WINDi_r2_v1.2,2013-07-06 10:41:00,
2013-07-06 03:46:00,66.5,63.1,29.80,SSE,147,0.0,2.0,89,0.00,,,0.00,0,HR-IXP-WINDi_r2_v1.2,2013-07-06 10:46:00,
2013-07-06 03:51:00,66.5,63.1,29.80,SSE,147,0.0,2.0,89,0.00,,,0.00,0,HR-IXP-WINDi_r2_v1.2,2013-07-06 10:51:00,
2013-07-06 03:56:00,66.5,63.1,29.80,SSE,147,0.0,1.0,89,0.00,,,0.00,0,HR-IXP-WINDi_r2_v1.2,2013-07-06 10:56:00,
2013-07-06 04:01:00,66.5,63.1,29.80,SSE,147,0.0,1.0,89,0.00,,,0.00,0,HR-IXP-WINDi_r2_v1.2,2013-07-06 11:01:00,
2013-07-06 04:06:00,66.5,63.1,29.80,SSE,147,1.0,1.0,89,0.00,,,0.00,0,HR-IXP-WINDi_r2_v1.2,2013-07-06 11:06:00,
2013-07-06 04:11:00,66.6,63.2,29.79,ESE,103,0.0,3.0,89,0.00,,,0.00,0,HR-IXP-WINDi_r2_v1.2,2013-07-06 11:11:00,
2013-07-06 04:17:00,66.6,63.2,29.79,ESE,112,0.0,3.0,89,0.00,,,0.00,0,HR-IXP-WINDi_r2_v1.2,2013-07-06 11:17:00,
2013-07-06 04:22:00,66.7,63.3,29.79,SE,124,2.0,3.0,89,0.00,,,0.00,0,HR-IXP-WINDi_r2_v1.2,2013-07-06 11:22:00,
2013-07-06 04:27:00,66.7,63.3,29.79,South,182,0.0,4.0,89,0.00,,,0.00,0,HR-IXP-WINDi_r2_v1.2,2013-07-06 11:27:00,
2013-07-06 04:33:00,66.7,63.3,29.79,South,182,0.0,4.0,89,0.00,,,0.00,0,HR-IXP-WINDi_r2_v1.2,2013-07-06 11:33:00,
2013-07-06 04:38:00,66.8,63.1,29.79,South,182,1.0,2.0,88,0.00,,,0.00,0,HR-IXP-WINDi_r2_v1.2,2013-07-06 11:38:00,
2013-07-06 04:43:00,66.8,63.1,29.79,South,182,0.0,4.0,88,0.00,,,0.00,0,HR-IXP-WINDi_r2_v1.2,2013-07-06 11:43:00,
2013-07-06 04:48:00,66.8,63.1,29.79,South,182,0.0,4.0,88,0.00,,,0.00,0,HR-IXP-WINDi_r2_v1.2,2013-07-06 11:48:00,
2013-07-06 04:53:00,66.8,63.1,29.79,South,182,0.0,3.0,88,0.00,,,0.00,0,HR-IXP-WINDi_r2_v1.2,2013-07-06 11:53:00,
2013-07-06 04:59:00,66.8,63.1,29.79,South,182,0.0,3.0,88,0.00,,,0.00,0,HR-IXP-WINDi_r2_v1.2,2013-07-06 11:59:00,
2013-07-06 05:04:00,66.7,63.0,29.79,South,182,0.0,1.0,88,0.00,,,0.00,0,HR-IXP-WINDi_r2_v1.2,2013-07-06 12:04:00,
2013-07-06 05:09:00,66.8,63.1,29.80,South,182,0.0,1.0,88,0.00,,,0.00,0,HR-IXP-WINDi_r2_v1.2,2013-07-06 12:09:00,
2013-07-06 05:14:00,66.7,63.0,29.80,South,182,0.0,1.0,88,0.00,,,0.00,0,HR-IXP-WINDi_r2_v1.2,2013-07-06 12:14:00,
2013-07-06 05:20:00,66.8,63.1,29.80,South,182,0.0,1.0,88,0.00,,,0.00,0,HR-IXP-WINDi_r2_v1.2,2013-07-06 12:20:00,
2013-07-06 05:25:00,66.8,63.1,29.80,South,182,1.0,1.0,88,0.00,,,0.00,0,HR-IXP-WINDi_r2_v1.2,2013-07-06 12:25:00,
2013-07-06 05:30:00,66.9,63.2,29.80,South,182,0.0,2.0,88,0.00,,,0.00,0,HR-IXP-WINDi_r2_v1.2,2013-07-06 12:30:00,
2013-07-06 05:35:00,67.0,62.9,29.80,South,182,0.0,2.0,87,0.00,,,0.00,0,HR-IXP-WINDi_r2_v1.2,2013-07-06 12:35:00,
2013-07-06 05:40:00,66.9,62.8,29.80,South,182,3.0,3.0,87,0.00,,,0.00,0,HR-IXP-WINDi_r2_v1.2,2013-07-06 12:40:00,
2013-07-06 05:45:00,67.0,62.9,29.80,South,180,0.0,3.0,87,0.00,,,0.00,0,HR-IXP-WINDi_r2_v1.2,2013-07-06 12:45:00,
2013-07-06 05:50:00,67.0,62.9,29.80,South,180,0.0,3.0,87,0.00,,,0.00,0,HR-IXP-WINDi_r2_v1.2,2013-07-06 12:50:00,
2013-07-06 05:55:00,67.0,62.6,29.80,South,180,1.0,2.0,86,0.00,,,0.00,0,HR-IXP-WINDi_r2_v1.2,2013-07-06 12:55:00,
2013-07-06 06:01:00,66.9,62.5,29.80,South,181,1.0,2.0,86,0.00,,,0.00,5,HR-IXP-WINDi_r2_v1.2,2013-07-06 13:01:00,
2013-07-06 06:06:00,66.9,62.5,29.80,South,181,0.0,2.0,86,0.00,,,0.00,9,HR-IXP-WINDi_r2_v1.2,2013-07-06 13:06:00,
2013-07-06 06:11:00,67.0,62.6,29.80,South,181,0.0,2.0,86,0.00,,,0.00,12,HR-IXP-WINDi_r2_v1.2,2013-07-06 13:11:00,
2013-07-06 06:16:00,66.9,62.5,29.80,South,181,0.0,2.0,86,0.00,,,0.00,12,HR-IXP-WINDi_r2_v1.2,2013-07-06 13:16:00,
2013-07-06 06:21:00,66.9,62.5,29.80,South,181,0.0,1.0,86,0.00,,,0.00,12,HR-IXP-WINDi_r2_v1.2,2013-07-06 13:21:00,
2013-07-06 06:27:00,66.9,62.5,29.80,South,181,0.0,1.0,86,0.00,,,0.00,14,HR-IXP-WINDi_r2_v1.2,2013-07-06 13:27:00,
2013-07-06 06:32:00,66.9,62.5,29.80,South,181,0.0,1.0,86,0.00,,,0.00,21,HR-IXP-WINDi_r2_v1.2,2013-07-06 13:32:00,
2013-07-06 06:37:00,67.0,62.6,29.81,South,181,0.0,1.0,86,0.00,,,0.00,19,HR-IXP-WINDi_r2_v1.2,2013-07-06 13:37:00,
2013-07-06 06:42:00,67.1,62.7,29.81,South,181,1.0,2.0,86,0.00,,,0.00,25,HR-IXP-WINDi_r2_v1.2,2013-07-06 13:42:00,
2013-07-06 06:47:00,67.1,62.7,29.81,South,181,2.0,2.0,86,0.00,,,0.00,18,HR-IXP-WINDi_r2_v1.2,2013-07-06 13:47:00,
2013-07-06 06:53:00,67.0,62.6,29.81,South,181,0.0,2.0,86,0.00,,,0.00,21,HR-IXP-WINDi_r2_v1.2,2013-07-06 13:53:00,
2013-07-06 06:58:00,67.1,62.7,29.81,South,181,0.0,3.0,86,0.00,,,0.00,25,HR-IXP-WINDi_r2_v1.2,2013-07-06 13:58:00,
2013-07-06 07:03:00,67.2,62.8,29.81,South,181,0.0,3.0,86,0.00,,,0.00,30,HR-IXP-WINDi_r2_v1.2,2013-07-06 14:03:00,
2013-07-06 07:08:00,67.2,62.8,29.81,South,181,0.0,2.0,86,0.00,,,0.00,30,HR-IXP-WINDi_r2_v1.2,2013-07-06 14:08:00,
2013-07-06 07:13:00,67.3,62.9,29.81,South,180,2.0,4.0,86,0.00,,,0.00,60,HR-IXP-WINDi_r2_v1.2,2013-07-06 14:13:00,
2013-07-06 07:19:00,67.5,62.8,29.81,South,184,0.0,4.0,85,0.00,,,0.00,83,HR-IXP-WINDi_r2_v1.2,2013-07-06 14:19:00,
2013-07-06 07:24:00,67.6,62.9,29.82,South,184,1.0,4.0,85,0.00,,,0.00,81,HR-IXP-WINDi_r2_v1.2,2013-07-06 14:24:00,
2013-07-06 07:29:00,67.8,63.1,29.82,South,184,0.0,3.0,85,0.00,,,0.00,90,HR-IXP-WINDi_r2_v1.2,2013-07-06 14:29:00,
2013-07-06 07:34:00,67.9,62.8,29.82,South,169,0.0,4.0,84,0.00,,,0.00,98,HR-IXP-WINDi_r2_v1.2,2013-07-06 14:34:00,
2013-07-06 07:39:00,68.4,63.6,29.82,South,169,0.0,4.0,85,0.00,,,0.00,100,HR-IXP-WINDi_r2_v1.2,2013-07-06 14:39:00,
2013-07-06 07:44:00,68.1,63.0,29.82,South,169,2.0,2.0,84,0.00,,,0.00,116,HR-IXP-WINDi_r2_v1.2,2013-07-06 14:44:00,
2013-07-06 07:50:00,67.9,63.2,29.82,SSW,195,1.0,4.0,85,0.00,,,0.00,128,HR-IXP-WINDi_r2_v1.2,2013-07-06 14:50:00,
2013-07-06 07:55:00,68.2,63.5,29.83,SSW,195,0.0,4.0,85,0.00,,,0.00,130,HR-IXP-WINDi_r2_v1.2,2013-07-06 14:55:00,
2013-07-06 08:00:00,68.6,63.8,29.83,SSW,195,0.0,4.0,85,0.00,,,0.00,139,HR-IXP-WINDi_r2_v1.2,2013-07-06 15:00:00,
2013-07-06 08:05:00,68.8,63.7,29.83,SSW,195,0.0,2.0,84,0.00,,,0.00,130,HR-IXP-WINDi_r2_v1.2,2013-07-06 15:05:00,
2013-07-06 08:10:00,68.4,63.3,29.83,SW,220,1.0,4.0,84,0.00,,,0.00,132,HR-IXP-WINDi_r2_v1.2,2013-07-06 15:10:00,
2013-07-06 08:16:00,68.4,63.3,29.83,SW,227,2.0,5.0,84,0.00,,,0.00,88,HR-IXP-WINDi_r2_v1.2,2013-07-06 15:16:00,
2013-07-06 08:21:00,68.4,63.6,29.83,SW,215,0.0,5.0,85,0.00,,,0.00,155,HR-IXP-WINDi_r2_v1.2,2013-07-06 15:21:00,
2013-07-06 08:26:00,68.3,63.2,29.83,SW,215,1.0,4.0,84,0.00,,,0.00,197,HR-IXP-WINDi_r2_v1.2,2013-07-06 15:26:00,
2013-07-06 08:31:00,68.4,63.3,29.84,SW,215,0.0,3.0,84,0.00,,,0.00,192,HR-IXP-WINDi_r2_v1.2,2013-07-06 15:31:00,
2013-07-06 08:36:00,68.7,63.6,29.84,SW,216,0.0,3.0,84,0.00,,,0.00,192,HR-IXP-WINDi_r2_v1.2,2013-07-06 15:36:00,
2013-07-06 08:41:00,68.9,63.8,29.84,SW,216,1.0,3.0,84,0.00,,,0.00,204,HR-IXP-WINDi_r2_v1.2,2013-07-06 15:41:00,
2013-07-06 08:46:00,69.5,64.4,29.84,SSW,213,0.0,3.0,84,0.00,,,0.00,248,HR-IXP-WINDi_r2_v1.2,2013-07-06 15:46:00,
2013-07-06 08:51:00,69.0,63.6,29.84,SW,229,2.0,4.0,83,0.00,,,0.00,246,HR-IXP-WINDi_r2_v1.2,2013-07-06 15:51:00,
2013-07-06 08:57:00,69.1,63.7,29.84,West,263,3.0,4.0,83,0.00,,,0.00,264,HR-IXP-WINDi_r2_v1.2,2013-07-06 15:57:00,
2013-07-06 09:02:00,69.4,63.9,29.84,SW,223,4.0,7.0,83,0.00,,,0.00,306,HR-IXP-WINDi_r2_v1.2,2013-07-06 16:02:00,
2013-07-06 09:07:00,69.3,63.9,29.84,SW,215,1.0,7.0,83,0.00,,,0.00,292,HR-IXP-WINDi_r2_v1.2,2013-07-06 16:07:00,
2013-07-06 09:12:00,69.5,64.0,29.84,West,259,4.0,5.0,83,0.00,,,0.00,271,HR-IXP-WINDi_r2_v1.2,2013-07-06 16:12:00,
2013-07-06 09:17:00,69.5,64.4,29.84,WSW,257,2.0,5.0,84,0.00,,,0.00,327,HR-IXP-WINDi_r2_v1.2,2013-07-06 16:17:00,
2013-07-06 09:22:00,69.7,64.2,29.84,West,269,1.0,5.0,83,0.00,,,0.00,385,HR-IXP-WINDi_r2_v1.2,2013-07-06 16:22:00,
2013-07-06 09:28:00,69.5,63.7,29.84,WSW,244,1.0,5.0,82,0.00,,,0.00,302,HR-IXP-WINDi_r2_v1.2,2013-07-06 16:28:00,
2013-07-06 09:33:00,69.7,64.2,29.84,WSW,250,3.0,5.0,83,0.00,,,0.00,279,HR-IXP-WINDi_r2_v1.2,2013-07-06 16:33:00,
2013-07-06 09:38:00,70.4,64.6,29.84,South,178,2.0,7.0,82,0.00,,,0.00,278,HR-IXP-WINDi_r2_v1.2,2013-07-06 16:38:00,
2013-07-06 09:44:00,70.1,64.3,29.84,SSW,208,1.0,7.0,82,0.00,,,0.00,243,HR-IXP-WINDi_r2_v1.2,2013-07-06 16:44:00,
2013-07-06 09:49:00,70.1,64.6,29.84,SSW,197,2.0,6.0,83,0.00,,,0.00,341,HR-IXP-WINDi_r2_v1.2,2013-07-06 16:49:00,
2013-07-06 09:54:00,70.4,64.6,29.84,SW,234,5.0,6.0,82,0.00,,,0.00,399,HR-IXP-WINDi_r2_v1.2,2013-07-06 16:54:00,
2013-07-06 09:59:00,70.3,64.8,29.84,South,174,2.0,6.0,83,0.00,,,0.00,269,HR-IXP-WINDi_r2_v1.2,2013-07-06 16:59:00,
2013-07-06 10:04:00,70.3,64.8,29.84,SSW,202,4.0,7.0,83,0.00,,,0.00,425,HR-IXP-WINDi_r2_v1.2,2013-07-06 17:04:00,
2013-07-06 10:09:00,70.2,64.4,29.84,SW,235,1.0,7.0,82,0.00,,,0.00,338,HR-IXP-WINDi_r2_v1.2,2013-07-06 17:09:00,
2013-07-06 10:15:00,71.2,65.0,29.84,SSW,213,3.0,6.0,81,0.00,,,0.00,489,HR-IXP-WINDi_r2_v1.2,2013-07-06 17:15:00,
2013-07-06 10:20:00,71.0,64.8,29.84,South,171,4.0,7.0,81,0.00,,,0.00,468,HR-IXP-WINDi_r2_v1.2,2013-07-06 17:20:00,
2013-07-06 10:25:00,72.3,66.4,29.84,South,175,1.0,8.0,82,0.00,,,0.00,598,HR-IXP-WINDi_r2_v1.2,2013-07-06 17:25:00,
2013-07-06 10:30:00,72.6,65.7,29.84,SW,222,4.0,8.0,79,0.00,,,0.00,933,HR-IXP-WINDi_r2_v1.2,2013-07-06 17:30:00,
2013-07-06 10:35:00,73.4,66.1,29.84,SE,143,2.0,6.0,78,0.00,,,0.00,925,HR-IXP-WINDi_r2_v1.2,2013-07-06 17:35:00,
2013-07-06 10:41:00,73.4,65.7,29.84,South,186,2.0,6.0,77,0.00,,,0.00,830,HR-IXP-WINDi_r2_v1.2,2013-07-06 17:41:00,
2013-07-06 10:46:00,73.0,65.3,29.84,SW,234,2.0,5.0,77,0.00,,,0.00,533,HR-IXP-WINDi_r2_v1.2,2013-07-06 17:46:00,
2013-07-06 10:51:00,73.4,65.7,29.84,SSE,158,3.0,6.0,77,0.00,,,0.00,896,HR-IXP-WINDi_r2_v1.2,2013-07-06 17:51:00,
2013-07-06 10:56:00,73.6,66.3,29.84,SW,231,2.0,7.0,78,0.00,,,0.00,802,HR-IXP-WINDi_r2_v1.2,2013-07-06 17:56:00,
2013-07-06 11:01:00,73.5,66.2,29.84,SSW,211,2.0,7.0,78,0.00,,,0.00,796,HR-IXP-WINDi_r2_v1.2,2013-07-06 18:01:00,
2013-07-06 11:07:00,72.7,65.4,29.84,SW,225,4.0,7.0,78,0.00,,,0.00,824,HR-IXP-WINDi_r2_v1.2,2013-07-06 18:07:00,
2013-07-06 11:12:00,73.3,66.7,29.84,SSW,204,2.0,6.0,80,0.00,,,0.00,788,HR-IXP-WINDi_r2_v1.2,2013-07-06 18:12:00,
2013-07-06 11:17:00,73.4,66.1,29.84,SW,215,3.0,7.0,78,0.00,,,0.00,854,HR-IXP-WINDi_r2_v1.2,2013-07-06 18:17:00,
2013-07-06 11:22:00,73.5,66.2,29.84,South,177,2.0,8.0,78,0.00,,,0.00,791,HR-IXP-WINDi_r2_v1.2,2013-07-06 18:22:00,
2013-07-06 11:27:00,72.9,65.6,29.84,SW,223,1.0,8.0,78,0.00,,,0.00,851,HR-IXP-WINDi_r2_v1.2,2013-07-06 18:27:00,
2013-07-06 11:33:00,74.5,67.1,29.83,SSE,164,1.0,6.0,78,0.00,,,0.00,671,HR-IXP-WINDi_r2_v1.2,2013-07-06 18:33:00,
2013-07-06 11:38:00,74.2,66.1,29.83,SW,230,4.0,6.0,76,0.00,,,0.00,756,HR-IXP-WINDi_r2_v1.2,2013-07-06 18:38:00,
2013-07-06 11:43:00,74.4,66.3,29.83,SSW,207,2.0,7.0,76,0.00,,,0.00,1023,HR-IXP-WINDi_r2_v1.2,2013-07-06 18:43:00,
2013-07-06 11:48:00,74.2,65.7,29.83,WSW,248,4.0,7.0,75,0.00,,,0.00,647,HR-IXP-WINDi_r2_v1.2,2013-07-06 18:48:00,
2013-07-06 11:53:00,73.4,65.3,29.83,WSW,241,0.0,7.0,76,0.00,,,0.00,661,HR-IXP-WINDi_r2_v1.2,2013-07-06 18:53:00,
2013-07-06 11:59:00,73.5,65.8,29.82,West,259,4.0,6.0,77,0.00,,,0.00,513,HR-IXP-WINDi_r2_v1.2,2013-07-06 18:59:00,
2013-07-06 12:04:00,74.4,66.7,29.83,South,174,2.0,7.0,77,0.00,,,0.00,807,HR-IXP-WINDi_r2_v1.2,2013-07-06 19:04:00,
2013-07-06 12:09:00,73.9,65.8,29.83,SW,225,0.0,9.0,76,0.00,,,0.00,888,HR-IXP-WINDi_r2_v1.2,2013-07-06 19:09:00,
2013-07-06 12:15:00,75.4,66.9,29.83,South,171,4.0,9.0,75,0.00,,,0.00,870,HR-IXP-WINDi_r2_v1.2,2013-07-06 19:15:00,
2013-07-06 12:20:00,74.8,65.9,29.83,WSW,250,5.0,9.0,74,0.00,,,0.00,875,HR-IXP-WINDi_r2_v1.2,2013-07-06 19:20:00,
2013-07-06 12:25:00,74.8,66.7,29.82,SSW,192,3.0,8.0,76,0.00,,,0.00,882,HR-IXP-WINDi_r2_v1.2,2013-07-06 19:25:00,
2013-07-06 12:30:00,76.1,66.8,29.82,SSW,204,3.0,6.0,73,0.00,,,0.00,912,HR-IXP-WINDi_r2_v1.2,2013-07-06 19:30:00,
2013-07-06 12:35:00,76.0,66.7,29.82,SSW,208,1.0,7.0,73,0.00,,,0.00,914,HR-IXP-WINDi_r2_v1.2,2013-07-06 19:35:00,
2013-07-06 12:41:00,75.8,66.1,29.82,SW,218,5.0,7.0,72,0.00,,,0.00,909,HR-IXP-WINDi_r2_v1.2,2013-07-06 19:41:00,
2013-07-06 12:46:00,76.0,66.7,29.82,SSW,205,6.0,9.0,73,0.00,,,0.00,921,HR-IXP-WINDi_r2_v1.2,2013-07-06 19:46:00,
2013-07-06 12:51:00,75.7,66.4,29.82,SSW,212,4.0,9.0,73,0.00,,,0.00,933,HR-IXP-WINDi_r2_v1.2,2013-07-06 19:51:00,
2013-07-06 12:57:00,75.5,65.4,29.82,SW,219,3.0,8.0,71,0.00,,,0.00,926,HR-IXP-WINDi_r2_v1.2,2013-07-06 19:57:00,
2013-07-06 13:02:00,75.6,66.3,29.81,WSW,247,4.0,9.0,73,0.00,,,0.00,896,HR-IXP-WINDi_r2_v1.2,2013-07-06 20:02:00,
2013-07-06 13:07:00,75.5,66.2,29.81,South,176,4.0,10.0,73,0.00,,,0.00,882,HR-IXP-WINDi_r2_v1.2,2013-07-06 20:07:00,
2013-07-06 13:12:00,76.2,66.1,29.81,SSE,167,5.0,10.0,71,0.00,,,0.00,884,HR-IXP-WINDi_r2_v1.2,2013-07-06 20:12:00,
2013-07-06 13:17:00,76.0,66.7,29.81,SW,219,6.0,8.0,73,0.00,,,0.00,740,HR-IXP-WINDi_r2_v1.2,2013-07-06 20:17:00,
2013-07-06 13:22:00,75.7,66.0,29.81,SSW,213,2.0,11.0,72,0.00,,,0.00,868,HR-IXP-WINDi_r2_v1.2,2013-07-06 20:22:00,
2013-07-06 13:27:00,76.3,66.6,29.81,SW,234,3.0,11.0,72,0.00,,,0.00,738,HR-IXP-WINDi_r2_v1.2,2013-07-06 20:27:00,
2013-07-06 13:32:00,75.3,65.6,29.81,WSW,252,6.0,9.0,72,0.00,,,0.00,482,HR-IXP-WINDi_r2_v1.2,2013-07-06 20:32:00,
2013-07-06 13:37:00,75.2,65.9,29.80,West,269,8.0,9.0,73,0.00,,,0.00,997,HR-IXP-WINDi_r2_v1.2,2013-07-06 20:37:00,
2013-07-06 13:43:00,75.6,66.3,29.80,WSW,255,3.0,9.0,73,0.00,,,0.00,983,HR-IXP-WINDi_r2_v1.2,2013-07-06 20:43:00,
2013-07-06 13:48:00,76.0,66.3,29.80,SW,235,6.0,9.0,72,0.00,,,0.00,708,HR-IXP-WINDi_r2_v1.2,2013-07-06 20:48:00,
2013-07-06 13:53:00,76.0,66.3,29.80,South,188,0.0,8.0,72,0.00,,,0.00,856,HR-IXP-WINDi_r2_v1.2,2013-07-06 20:53:00,
2013-07-06 13:59:00,75.1,65.4,29.80,SW,232,3.0,11.0,72,0.00,,,0.00,489,HR-IXP-WINDi_r2_v1.2,2013-07-06 20:59:00,
2013-07-06 14:04:00,74.8,65.5,29.80,SSE,163,4.0,11.0,73,0.00,,,0.00,388,HR-IXP-WINDi_r2_v1.2,2013-07-06 21:04:00,
2013-07-06 14:09:00,75.1,66.6,29.80,WSW,241,3.0,9.0,75,0.00,,,0.00,1058,HR-IXP-WINDi_r2_v1.2,2013-07-06 21:09:00,
2013-07-06 14:14:00,75.4,66.5,29.80,SW,230,4.0,10.0,74,0.00,,,0.00,932,HR-IXP-WINDi_r2_v1.2,2013-07-06 21:14:00,
2013-07-06 14:19:00,75.1,65.8,29.80,SW,217,7.0,11.0,73,0.00,,,0.00,867,HR-IXP-WINDi_r2_v1.2,2013-07-06 21:19:00,
2013-07-06 14:24:00,74.5,65.6,29.80,South,182,2.0,11.0,74,0.00,,,0.00,849,HR-IXP-WINDi_r2_v1.2,2013-07-06 21:24:00,
2013-07-06 14:30:00,75.4,66.9,29.80,SSW,199,3.0,10.0,75,0.00,,,0.00,860,HR-IXP-WINDi_r2_v1.2,2013-07-06 21:30:00,
2013-07-06 14:35:00,75.9,66.6,29.79,SW,221,2.0,10.0,73,0.00,,,0.00,868,HR-IXP-WINDi_r2_v1.2,2013-07-06 21:35:00,
2013-07-06 14:40:00,75.6,65.9,29.79,SW,227,4.0,10.0,72,0.00,,,0.00,856,HR-IXP-WINDi_r2_v1.2,2013-07-06 21:40:00,
2013-07-06 14:45:00,75.2,65.9,29.79,SSW,207,5.0,10.0,73,0.00,,,0.00,881,HR-IXP-WINDi_r2_v1.2,2013-07-06 21:45:00,
2013-07-06 14:50:00,75.6,66.7,29.79,WSW,240,5.0,10.0,74,0.00,,,0.00,875,HR-IXP-WINDi_r2_v1.2,2013-07-06 21:50:00,
2013-07-06 14:56:00,75.6,65.9,29.78,SSW,213,3.0,10.0,72,0.00,,,0.00,872,HR-IXP-WINDi_r2_v1.2,2013-07-06 21:56:00,
2013-07-06 15:01:00,76.0,66.3,29.79,SW,223,6.0,9.0,72,0.00,,,0.00,768,HR-IXP-WINDi_r2_v1.2,2013-07-06 22:01:00,
2013-07-06 15:06:00,74.9,65.6,29.78,WSW,243,5.0,10.0,73,0.00,,,0.00,802,HR-IXP-WINDi_r2_v1.2,2013-07-06 22:06:00,
2013-07-06 15:11:00,74.9,66.0,29.78,SW,227,6.0,11.0,74,0.00,,,0.00,777,HR-IXP-WINDi_r2_v1.2,2013-07-06 22:11:00,
2013-07-06 15:16:00,75.4,66.5,29.78,SSW,203,2.0,11.0,74,0.00,,,0.00,763,HR-IXP-WINDi_r2_v1.2,2013-07-06 22:16:00,
2013-07-06 15:22:00,74.9,65.6,29.78,West,259,4.0,11.0,73,0.00,,,0.00,747,HR-IXP-WINDi_r2_v1.2,2013-07-06 22:22:00,
2013-07-06 15:27:00,74.7,65.8,29.78,South,184,5.0,12.0,74,0.00,,,0.00,733,HR-IXP-WINDi_r2_v1.2,2013-07-06 22:27:00,
2013-07-06 15:32:00,74.9,65.6,29.77,SW,215,3.0,12.0,73,0.00,,,0.00,731,HR-IXP-WINDi_r2_v1.2,2013-07-06 22:32:00,
2013-07-06 15:37:00,75.0,65.7,29.77,SSW,213,6.0,10.0,73,0.00,,,0.00,756,HR-IXP-WINDi_r2_v1.2,2013-07-06 22:37:00,
2013-07-06 15:43:00,75.2,65.9,29.77,SW,222,5.0,10.0,73,0.00,,,0.00,700,HR-IXP-WINDi_r2_v1.2,2013-07-06 22:43:00,
2013-07-06 15:48:00,75.3,66.0,29.77,SW,221,5.0,11.0,73,0.00,,,0.00,666,HR-IXP-WINDi_r2_v1.2,2013-07-06 22:48:00,
2013-07-06 15:53:00,75.7,66.4,29.77,SW,229,8.0,11.0,73,0.00,,,0.00,650,HR-IXP-WINDi_r2_v1.2,2013-07-06 22:53:00,
2013-07-06 15:58:00,75.7,66.4,29.77,WSW,254,5.0,11.0,73,0.00,,,0.00,520,HR-IXP-WINDi_r2_v1.2,2013-07-06 22:58:00,
2013-07-06 16:04:00,75.2,65.9,29.77,WSW,258,3.0,11.0,73,0.00,,,0.00,388,HR-IXP-WINDi_r2_v1.2,2013-07-06 23:04:00,
2013-07-06 16:09:00,75.4,66.5,29.77,SW,229,1.0,11.0,74,0.00,,,0.00,605,HR-IXP-WINDi_r2_v1.2,2013-07-06 23:09:00,
2013-07-06 16:14:00,76.2,66.5,29.77,South,184,5.0,9.0,72,0.00,,,0.00,617,HR-IXP-WINDi_r2_v1.2,2013-07-06 23:14:00,
2013-07-06 16:19:00,75.4,65.7,29.77,SSW,201,10.0,10.0,72,0.00,,,0.00,601,HR-IXP-WINDi_r2_v1.2,2013-07-06 23:19:00,
2013-07-06 16:25:00,75.0,65.7,29.76,West,269,5.0,10.0,73,0.00,,,0.00,587,HR-IXP-WINDi_r2_v1.2,2013-07-06 23:25:00,
2013-07-06 16:30:00,74.9,65.6,29.76,SSE,160,7.0,11.0,73,0.00,,,0.00,575,HR-IXP-WINDi_r2_v1.2,2013-07-06 23:30:00,
2013-07-06 16:35:00,74.9,66.0,29.76,WSW,240,9.0,12.0,74,0.00,,,0.00,559,HR-IXP-WINDi_r2_v1.2,2013-07-06 23:35:00,
2013-07-06 16:40:00,74.8,66.3,29.76,SSW,205,7.0,12.0,75,0.00,,,0.00,543,HR-IXP-WINDi_r2_v1.2,2013-07-06 23:40:00,
2013-07-06 16:45:00,74.6,66.1,29.76,SSW,198,5.0,11.0,75,0.00,,,0.00,529,HR-IXP-WINDi_r2_v1.2,2013-07-06 23:45:00,
2013-07-06 16:51:00,74.5,66.0,29.76,South,184,6.0,11.0,75,0.00,,,0.00,513,HR-IXP-WINDi_r2_v1.2,2013-07-06 23:51:00,
2013-07-06 16:56:00,73.9,65.4,29.76,SW,236,6.0,11.0,75,0.00,,,0.00,497,HR-IXP-WINDi_r2_v1.2,2013-07-06 23:56:00,
2013-07-06 17:01:00,74.0,65.9,29.76,SW,214,5.0,12.0,76,0.00,,,0.00,485,HR-IXP-WINDi_r2_v1.2,2013-07-07 00:01:00,
2013-07-06 17:06:00,73.8,65.3,29.76,South,191,5.0,12.0,75,0.00,,,0.00,471,HR-IXP-WINDi_r2_v1.2,2013-07-07 00:06:00,
2013-07-06 17:11:00,73.7,65.6,29.76,SSW,213,7.0,12.0,76,0.00,,,0.00,455,HR-IXP-WINDi_r2_v1.2,2013-07-07 00:11:00,
2013-07-06 17:16:00,73.3,65.2,29.76,SW,229,4.0,12.0,76,0.00,,,0.00,445,HR-IXP-WINDi_r2_v1.2,2013-07-07 00:16:00,
2013-07-06 17:22:00,73.7,65.2,29.76,SSE,155,3.0,11.0,75,0.00,,,0.00,429,HR-IXP-WINDi_r2_v1.2,2013-07-07 00:22:00,
2013-07-06 17:27:00,74.8,65.9,29.76,South,169,4.0,10.0,74,0.00,,,0.00,415,HR-IXP-WINDi_r2_v1.2,2013-07-07 00:27:00,
2013-07-06 17:32:00,74.7,65.8,29.76,South,184,5.0,11.0,74,0.00,,,0.00,399,HR-IXP-WINDi_r2_v1.2,2013-07-07 00:32:00,
2013-07-06 17:37:00,73.9,65.0,29.76,SW,219,5.0,11.0,74,0.00,,,0.00,346,HR-IXP-WINDi_r2_v1.2,2013-07-07 00:37:00,
2013-07-06 17:43:00,73.1,65.0,29.76,South,186,4.0,12.0,76,0.00,,,0.00,371,HR-IXP-WINDi_r2_v1.2,2013-07-07 00:43:00,
2013-07-06 17:48:00,73.7,65.6,29.75,South,173,2.0,12.0,76,0.00,,,0.00,353,HR-IXP-WINDi_r2_v1.2,2013-07-07 00:48:00,
2013-07-06 17:53:00,73.3,65.2,29.75,SSE,158,7.0,12.0,76,0.00,,,0.00,329,HR-IXP-WINDi_r2_v1.2,2013-07-07 00:53:00,
2013-07-06 17:58:00,73.3,65.2,29.75,SW,227,2.0,12.0,76,0.00,,,0.00,313,HR-IXP-WINDi_r2_v1.2,2013-07-07 00:58:00,
2013-07-06 18:03:00,73.2,65.1,29.75,SSW,213,7.0,9.0,76,0.00,,,0.00,295,HR-IXP-WINDi_r2_v1.2,2013-07-07 01:03:00,
2013-07-06 18:09:00,73.3,65.2,29.76,South,182,5.0,9.0,76,0.00,,,0.00,264,HR-IXP-WINDi_r2_v1.2,2013-07-07 01:09:00,
2013-07-06 18:14:00,72.5,64.8,29.76,SSW,202,4.0,12.0,77,0.00,,,0.00,264,HR-IXP-WINDi_r2_v1.2,2013-07-07 01:14:00,
2013-07-06 18:19:00,72.1,64.8,29.76,SSW,207,5.0,12.0,78,0.00,,,0.00,255,HR-IXP-WINDi_r2_v1.2,2013-07-07 01:19:00,
2013-07-06 18:24:00,71.9,65.0,29.76,WSW,246,8.0,10.0,79,0.00,,,0.00,237,HR-IXP-WINDi_r2_v1.2,2013-07-07 01:24:00,
2013-07-06 18:30:00,71.9,64.6,29.76,SW,219,7.0,10.0,78,0.00,,,0.00,160,HR-IXP-WINDi_r2_v1.2,2013-07-07 01:30:00,
2013-07-06 18:35:00,71.9,64.6,29.76,SSE,165,3.0,10.0,78,0.00,,,0.00,204,HR-IXP-WINDi_r2_v1.2,2013-07-07 01:35:00,
2013-07-06 18:40:00,71.8,64.9,29.76,SSW,209,4.0,8.0,79,0.00,,,0.00,190,HR-IXP-WINDi_r2_v1.2,2013-07-07 01:40:00,
2013-07-06 18:45:00,71.5,64.6,29.76,SW,229,8.0,9.0,79,0.00,,,0.00,176,HR-IXP-WINDi_r2_v1.2,2013-07-07 01:45:00,
2013-07-06 18:51:00,71.6,65.0,29.76,SW,227,3.0,9.0,80,0.00,,,0.00,163,HR-IXP-WINDi_r2_v1.2,2013-07-07 01:51:00,
2013-07-06 18:56:00,71.5,64.6,29.76,SSW,209,7.0,12.0,79,0.00,,,0.00,148,HR-IXP-WINDi_r2_v1.2,2013-07-07 01:56:00,
2013-07-06 19:01:00,70.9,64.4,29.76,South,190,7.0,12.0,80,0.00,,,0.00,134,HR-IXP-WINDi_r2_v1.2,2013-07-07 02:01:00,
2013-07-06 19:06:00,70.8,64.3,29.76,South,178,5.0,10.0,80,0.00,,,0.00,113,HR-IXP-WINDi_r2_v1.2,2013-07-07 02:06:00,
2013-07-06 19:11:00,70.5,64.3,29.76,SW,227,2.0,9.0,81,0.00,,,0.00,100,HR-IXP-WINDi_r2_v1.2,2013-07-07 02:11:00,
2013-07-06 19:17:00,70.3,64.1,29.77,SW,227,3.0,10.0,81,0.00,,,0.00,84,HR-IXP-WINDi_r2_v1.2,2013-07-07 02:17:00,
2013-07-06 19:22:00,70.0,63.8,29.77,SW,232,6.0,10.0,81,0.00,,,0.00,70,HR-IXP-WINDi_r2_v1.2,2013-07-07 02:22:00,
2013-07-06 19:27:00,69.9,64.4,29.77,SW,225,1.0,10.0,83,0.00,,,0.00,58,HR-IXP-WINDi_r2_v1.2,2013-07-07 02:27:00,
2013-07-06 19:32:00,69.9,64.1,29.77,South,189,3.0,9.0,82,0.00,,,0.00,47,HR-IXP-WINDi_r2_v1.2,2013-07-07 02:32:00,
2013-07-06 19:37:00,69.6,63.8,29.77,South,175,2.0,8.0,82,0.00,,,0.00,37,HR-IXP-WINDi_r2_v1.2,2013-07-07 02:37:00,
2013-07-06 19:42:00,69.3,63.9,29.77,SSW,200,5.0,8.0,83,0.00,,,0.00,28,HR-IXP-WINDi_r2_v1.2,2013-07-07 02:42:00,
2013-07-06 19:47:00,69.0,63.9,29.77,SSW,209,3.0,9.0,84,0.00,,,0.00,23,HR-IXP-WINDi_r2_v1.2,2013-07-07 02:47:00,
2013-07-06 19:53:00,68.6,63.5,29.77,South,171,3.0,9.0,84,0.00,,,0.00,14,HR-IXP-WINDi_r2_v1.2,2013-07-07 02:53:00,
2013-07-06 19:58:00,68.5,63.7,29.78,South,186,1.0,8.0,85,0.00,,,0.00,11,HR-IXP-WINDi_r2_v1.2,2013-07-07 02:58:00,
2013-07-06 20:03:00,68.3,63.6,29.78,SSE,148,2.0,8.0,85,0.00,,,0.00,7,HR-IXP-WINDi_r2_v1.2,2013-07-07 03:03:00,
2013-07-06 20:09:00,68.3,63.6,29.78,South,183,0.0,8.0,85,0.00,,,0.00,0,HR-IXP-WINDi_r2_v1.2,2013-07-07 03:09:00,
2013-07-06 20:14:00,68.2,63.5,29.78,SSW,197,5.0,8.0,85,0.00,,,0.00,0,HR-IXP-WINDi_r2_v1.2,2013-07-07 03:14:00,
2013-07-06 20:19:00,68.0,63.6,29.79,South,186,2.0,8.0,86,0.00,,,0.00,0,HR-IXP-WINDi_r2_v1.2,2013-07-07 03:19:00,
2013-07-06 20:24:00,67.9,63.5,29.79,SW,227,4.0,8.0,86,0.00,,,0.00,0,HR-IXP-WINDi_r2_v1.2,2013-07-07 03:24:00,
2013-07-06 20:29:00,67.9,63.5,29.79,SSW,213,4.0,8.0,86,0.00,,,0.00,0,HR-IXP-WINDi_r2_v1.2,2013-07-07 03:29:00,
2013-07-06 20:35:00,67.7,63.3,29.79,SW,223,4.0,7.0,86,0.00,,,0.00,0,HR-IXP-WINDi_r2_v1.2,2013-07-07 03:35:00,
2013-07-06 20:40:00,67.6,63.2,29.79,SSW,199,5.0,7.0,86,0.00,,,0.00,0,HR-IXP-WINDi_r2_v1.2,2013-07-07 03:40:00,
2013-07-06 20:45:00,67.5,63.4,29.79,South,172,2.0,8.0,87,0.00,,,0.00,0,HR-IXP-WINDi_r2_v1.2,2013-07-07 03:45:00,
2013-07-06 20:50:00,67.4,63.3,29.79,South,186,2.0,8.0,87,0.00,,,0.00,0,HR-IXP-WINDi_r2_v1.2,2013-07-07 03:50:00,
2013-07-06 20:55:00,67.4,63.3,29.80,South,180,5.0,6.0,87,0.00,,,0.00,0,HR-IXP-WINDi_r2_v1.2,2013-07-07 03:55:00,
2013-07-06 21:00:00,67.3,63.2,29.80,SSW,197,1.0,7.0,87,0.00,,,0.00,0,HR-IXP-WINDi_r2_v1.2,2013-07-07 04:00:00,
2013-07-06 21:01:00,67.3,63.2,29.80,SSW,197,0.0,7.0,87,0.00,,,0.00,0,HR-IXP-WINDi_r2_v1.2,2013-07-07 04:01:00,
2013-07-06 21:06:00,67.2,63.1,29.80,South,188,5.0,8.0,87,0.00,,,0.00,0,HR-IXP-WINDi_r2_v1.2,2013-07-07 04:06:00,
2013-07-06 21:11:00,67.1,63.4,29.80,South,186,5.0,8.0,88,0.00,,,0.00,0,HR-IXP-WINDi_r2_v1.2,2013-07-07 04:11:00,
2013-07-06 21:16:00,67.0,63.3,29.80,SSW,209,2.0,8.0,88,0.00,,,0.00,0,HR-IXP-WINDi_r2_v1.2,2013-07-07 04:16:00,
2013-07-06 21:21:00,66.8,63.1,29.81,South,174,0.0,7.0,88,0.00,,,0.00,0,HR-IXP-WINDi_r2_v1.2,2013-07-07 04:21:00,
2013-07-06 21:27:00,66.8,63.4,29.81,SW,221,4.0,7.0,89,0.00,,,0.00,0,HR-IXP-WINDi_r2_v1.2,2013-07-07 04:27:00,
2013-07-06 21:32:00,66.7,63.3,29.81,South,171,3.0,7.0,89,0.00,,,0.00,0,HR-IXP-WINDi_r2_v1.2,2013-07-07 04:32:00,
2013-07-06 21:37:00,66.7,63.3,29.82,SSW,204,2.0,6.0,89,0.00,,,0.00,0,HR-IXP-WINDi_r2_v1.2,2013-07-07 04:37:00,
2013-07-06 21:42:00,66.8,63.4,29.82,South,186,2.0,6.0,89,0.00,,,0.00,0,HR-IXP-WINDi_r2_v1.2,2013-07-07 04:42:00,
2013-07-06 21:47:00,66.7,63.3,29.82,SSW,204,5.0,7.0,89,0.00,,,0.00,0,HR-IXP-WINDi_r2_v1.2,2013-07-07 04:47:00,
2013-07-06 21:52:00,66.6,63.2,29.82,South,185,6.0,7.0,89,0.00,,,0.00,0,HR-IXP-WINDi_r2_v1.2,2013-07-07 04:52:00,
2013-07-06 21:57:00,66.5,63.1,29.82,South,183,5.0,7.0,89,0.00,,,0.00,0,HR-IXP-WINDi_r2_v1.2,2013-07-07 04:57:00,
2013-07-06 22:03:00,66.5,63.1,29.82,SSW,201,6.0,6.0,89,0.00,,,0.00,0,HR-IXP-WINDi_r2_v1.2,2013-07-07 05:03:00,
2013-07-06 22:08:00,66.5,63.1,29.82,South,178,3.0,6.0,89,0.00,,,0.00,0,HR-IXP-WINDi_r2_v1.2,2013-07-07 05:08:00,
2013-07-06 22:13:00,66.4,63.3,29.82,SSW,211,3.0,7.0,90,0.00,,,0.00,0,HR-IXP-WINDi_r2_v1.2,2013-07-07 05:13:00,
2013-07-06 22:18:00,66.3,63.2,29.82,SSW,207,0.0,7.0,90,0.00,,,0.00,0,HR-IXP-WINDi_r2_v1.2,2013-07-07 05:18:00,
2013-07-06 22:24:00,66.3,63.2,29.82,South,190,2.0,7.0,90,0.00,,,0.00,0,HR-IXP-WINDi_r2_v1.2,2013-07-07 05:24:00,
2013-07-06 22:29:00,66.2,63.1,29.82,South,175,1.0,7.0,90,0.00,,,0.00,0,HR-IXP-WINDi_r2_v1.2,2013-07-07 05:29:00,
2013-07-06 22:34:00,66.1,63.0,29.82,South,178,0.0,7.0,90,0.00,,,0.00,0,HR-IXP-WINDi_r2_v1.2,2013-07-07 05:34:00,
2013-07-06 22:39:00,66.1,63.0,29.82,SSW,200,1.0,5.0,90,0.00,,,0.00,0,HR-IXP-WINDi_r2_v1.2,2013-07-07 05:39:00,
2013-07-06 22:45:00,66.0,62.9,29.82,SSE,163,2.0,6.0,90,0.00,,,0.00,0,HR-IXP-WINDi_r2_v1.2,2013-07-07 05:45:00,
2013-07-06 22:50:00,66.1,63.0,29.82,SSE,159,3.0,6.0,90,0.00,,,0.00,0,HR-IXP-WINDi_r2_v1.2,2013-07-07 05:50:00,
2013-07-06 22:55:00,66.1,63.0,29.82,South,170,2.0,6.0,90,0.00,,,0.00,0,HR-IXP-WINDi_r2_v1.2,2013-07-07 05:55:00,
2013-07-06 23:01:00,66.1,63.0,29.82,SSW,192,0.0,4.0,90,0.00,,,0.00,0,HR-IXP-WINDi_r2_v1.2,2013-07-07 06:01:00,
2013-07-06 23:06:00,66.3,63.2,29.82,SSW,194,1.0,5.0,90,0.00,,,0.00,0,HR-IXP-WINDi_r2_v1.2,2013-07-07 06:06:00,
2013-07-06 23:11:00,66.3,63.2,29.82,South,181,1.0,5.0,90,0.00,,,0.00,0,HR-IXP-WINDi_r2_v1.2,2013-07-07 06:11:00,
2013-07-06 23:16:00,66.4,63.0,29.82,SW,223,1.0,4.0,89,0.00,,,0.00,0,HR-IXP-WINDi_r2_v1.2,2013-07-07 06:16:00,
2013-07-06 23:22:00,66.5,63.1,29.82,SW,223,4.0,5.0,89,0.00,,,0.00,0,HR-IXP-WINDi_r2_v1.2,2013-07-07 06:22:00,
2013-07-06 23:27:00,66.5,63.1,29.82,SW,216,3.0,5.0,89,0.00,,,0.00,0,HR-IXP-WINDi_r2_v1.2,2013-07-07 06:27:00,
2013-07-06 23:32:00,66.4,63.0,29.82,SSW,212,3.0,5.0,89,0.00,,,0.00,0,HR-IXP-WINDi_r2_v1.2,2013-07-07 06:32:00,
2013-07-06 23:37:00,66.5,63.1,29.82,SW,230,4.0,5.0,89,0.00,,,0.00,0,HR-IXP-WINDi_r2_v1.2,2013-07-07 06:37:00,
2013-07-06 23:42:00,66.5,63.1,29.82,SSW,203,0.0,5.0,89,0.00,,,0.00,0,HR-IXP-WINDi_r2_v1.2,2013-07-07 06:42:00,
2013-07-06 23:47:00,66.5,63.1,29.82,SW,214,1.0,5.0,89,0.00,,,0.00,0,HR-IXP-WINDi_r2_v1.2,2013-07-07 06:47:00,
2013-07-06 23:52:00,66.5,62.8,29.82,SW,219,3.0,4.0,88,0.00,,,0.00,0,HR-IXP-WINDi_r2_v1.2,2013-07-07 06:52:00,
2013-07-06 23:58:00,66.5,62.8,29.82,SSW,209,1.0,4.0,88,0.00,,,0.00,0,HR-IXP-WINDi_r2_v1.2,2013-07-07 06:58:00,